Location: Castillon
(43.1358°N, 0.8654°E)
Time: 19:57:24
(UTC+00:00)

Iridium 4 Rocket - Pass Details

Date: 24 January 2021
Orbit: 583 x 906 km, 86.9° (Epoch: 28 February)

Event Time Altitude Azimuth Distance (km) Brightness Sun altitude
Rises 19:06:42 0° 353° (N) 3,438 6.9 -23.3°
Reaches altitude 10° 19:09:14 10° 349° (N) 2,457 6.2 -23.7°
Maximum altitude 19:14:36 54° 274° (W) 949 4.2 -24.7°
Drops below altitude 10° 19:19:30 10° 197° (SSW) 2,238 6.1 -25.6°
Sets 19:21:43 0° 193° (SSW) 3,105 6.8 -26.0°
